Погода в Павии

Италия     45°11′20″N   9°08′55″E
темп.,
°C
ветер,
м/с
пор.,
м/с
влажн.,
%
обл.,
%
осадки,
мм/ч
давл.,
гПа
погр.,
м
17 мая, пн
пн1723:00+13св349897 0.3 1004103
02:00+12с129891 2.6 100355
05:00+13зюз259797 1.0 1002196
08:00+14з589047 1.3 1003361
11:00+18зюз66665 0.0 1006904
14:00+21з45460 0.0 10061244
17:00+22юз44430 0.0 10061081
20:00+18вюв11586 0.0 100711
18 мая, вт
вт1823:00+13вюв22900 0.0 101018
02:00+11ссв11920 0.2 101210
05:00+9ююз2278100 0.1 101323
08:00+11ююз23764 0.1 1014205
11:00+16ю22684 0.0 1014746
14:00+20ююз11554 0.0 10121145
17:00+21юз2350100 0.0 10101669
20:00+17юз597457 0.1 1010230
19 мая, ср
ср1923:00+12зюз48894 0.1 1011144
02:00+11з46820 0.1 101393
05:00+8ссз11770 0.0 101518
08:00+12в588679 0.0 1017663
11:00+15в4470100 0.0 10181017
14:00+18вюв21560 0.1 10161254
17:00+20ююз11480 0.0 10131324
20:00+17в22645 0.0 101314
20 мая, чт
чт2023:00+12всв3588100 1.5 101594
02:00+10всв3797100 4.3 1016240
05:00+10св2396100 0.4 101760
08:00+12зюз128516 0.4 1018201
11:00+16зюз336497 0.0 1019928
14:00+20ююз22420 0.0 10191173
17:00+20юз44480 0.0 1017785
20:00+16юз47735 0.0 1019133
21 мая, пт
пт2123:00+12ююв22790 0.0 102116
02:00+11св11835 0.0 102210
05:00+10в228821 0.0 102215
08:00+12в237998 0.0 1022178
11:00+17вюв236299 0.0 1022762
14:00+20вюв1154100 0.0 10201084
17:00+20юз3452100 0.0 10181491
20:00+16з3770100 0.0 1017155